カタログに戻る

AMC-2

GE-2

運用中通信GEO
NORAD 24713·PAYLOAD·🇱🇺 Luxembourg

打ち上げ Jan 30, 1997 から Guiana Space Centre

Loading…

TLE

最新Source: Space-Track

元期: Sep 14, 2026, 06:43 UTC

1 24713U 97002A   26257.28036433 -.00000269  00000-0  00000-0 0  9994
2 24713  10.9957  44.3934 0006717 154.6913 206.6501  0.99471552108312

AllMySatでAMC-2をリアルタイム追跡

Download on the App Store